Location: Pinawa
(50.1500°N, 95.8830°W)
Time: 18:47:35
(UTC-06:00)

ISS - All Passes

Search period start: 05 December 2016 00:00
Search period end: 15 December 2016 00:00
Orbit: 401 x 410 km, 51.6° (Epoch: 06 December)

Date Brightness Start Highest point End Pass type
(mag) Time Alt. Az. Time Alt. Az. Time Alt. Az.
05 Dec - 16:36:13 10° S 16:38:12 15° SE 16:40:12 10° ESE daylight
05 Dec - 18:10:57 10° WSW 18:14:13 62° SSE 18:17:31 10° ENE visible
05 Dec - 19:47:28 10° W 19:50:46 66° N 19:54:04 10° E visible
05 Dec - 21:24:04 10° WNW 21:27:23 86° SSW 21:30:43 10° ESE night (unlit)
05 Dec - 23:00:52 10° W 23:03:37 24° SW 23:06:21 10° SSE night (unlit)
06 Dec - 17:19:12 10° SW 17:22:20 42° SSE 17:25:30 10° E visible
06 Dec - 18:55:27 10° W 18:58:45 72° N 19:02:05 10° ENE visible
06 Dec - 20:32:06 10° WNW 20:35:25 76° N 20:38:44 10° E visible
06 Dec - 22:08:42 10° W 22:11:48 37° SSW 22:14:53 10° SE night (unlit)
07 Dec - 16:27:38 10° SSW 16:30:30 28° SE 16:33:23 10° E daylight
07 Dec - 18:03:27 10° WSW 18:06:46 87° NNW 18:10:06 10° ENE visible
07 Dec - 19:40:06 10° W 19:43:25 67° N 19:46:43 10° E visible
07 Dec - 21:16:39 10° WNW 21:19:55 55° SSW 21:23:10 10° SE night (unlit)
07 Dec - 22:54:15 10° WSW 22:55:52 13° SW 22:57:29 10° SSW night (unlit)
08 Dec - 15:36:23 10° S 15:38:42 18° SE 15:41:02 10° E daylight
08 Dec - 17:11:30 10° WSW 17:14:47 71° SSE 17:18:06 10° ENE visible
08 Dec - 18:48:04 10° W 18:51:23 65° N 18:54:41 10° E visible
08 Dec - 20:24:39 10° WNW 20:27:59 78° SSW 20:31:17 10° ESE visible
08 Dec - 22:01:35 10° W 22:04:07 20° SW 22:06:40 10° SSE night (unlit)
09 Dec - 14:45:56 10° SSE 14:46:59 11° SE 14:48:01 10° ESE daylight
09 Dec - 16:19:39 10° SW 16:22:51 49° SSE 16:26:05 10° ENE daylight
09 Dec - 17:56:02 10° W 17:59:20 69° N 18:02:39 10° ENE visible
09 Dec - 19:32:40 10° WNW 19:35:59 82° NNE 19:39:18 10° ESE visible
09 Dec - 21:09:19 10° W 21:12:18 31° SSW 21:15:17 10° SSE night (unlit)
10 Dec - 15:27:58 10° SSW 15:30:58 32° SSE 15:33:58 10° E daylight
10 Dec - 17:03:59 10° W 17:07:18 80° NNW 17:10:37 10° ENE visible
10 Dec - 18:40:38 10° WNW 18:43:57 70° N 18:47:15 10° E visible
10 Dec - 20:17:12 10° WNW 20:20:24 47° SSW 20:23:36 10° SE visible
10 Dec - 21:55:28 10° WSW 21:56:17 11° SW 21:57:05 10° SSW night (unlit)
11 Dec - 14:36:33 10° SSW 14:39:06 21° SE 14:41:42 10° E daylight
11 Dec - 16:11:59 10° WSW 16:15:16 80° SSE 16:18:35 10° ENE daylight
11 Dec - 17:48:35 10° W 17:51:52 65° N 17:55:11 10° E visible
11 Dec - 19:25:09 10° WNW 19:28:27 69° SSW 19:31:45 10° ESE visible
11 Dec - 21:02:15 10° W 21:04:31 17° SW 21:06:47 10° S night (unlit)
12 Dec - 13:45:37 10° S 13:47:19 14° SE 13:49:02 10° ESE daylight
12 Dec - 15:20:03 10° SW 15:23:17 57° SSE 15:26:32 10° ENE daylight
12 Dec - 16:56:30 10° W 16:59:48 66° N 17:03:06 10° E visible
12 Dec - 18:33:06 10° WNW 18:36:26 89° NNE 18:39:45 10° ESE visible
12 Dec - 20:09:50 10° W 20:12:41 27° SW 20:15:31 10° SSE visible
13 Dec - 14:28:15 10° SW 14:31:19 38° SSE 14:34:25 10° E daylight
13 Dec - 16:04:25 10° W 16:07:43 75° N 16:11:01 10° ENE daylight
13 Dec - 17:41:03 10° WNW 17:44:22 73° N 17:47:40 10° E visible
13 Dec - 19:17:38 10° W 19:20:47 40° SSW 19:23:54 10° SE visible
14 Dec - 13:36:40 10° SSW 13:39:25 25° SE 13:42:11 10° E daylight
14 Dec - 15:12:21 10° WSW 15:15:38 88° SSE 15:18:57 10° ENE daylight
14 Dec - 16:48:59 10° W 16:52:16 66° N 16:55:34 10° E daylight
14 Dec - 18:25:31 10° WNW 18:28:47 60° SSW 18:32:03 10° ESE visible
14 Dec - 20:02:53 10° WSW 20:04:47 15° SW 20:06:41 10° S visible
